星链-4772 (STARLINK-4772 )

导读 | 豆包AI

STARLINK-4772是美国于2022年9月24日发射的星链卫星,隶属于SpaceX星链互联网星座项目。星链计划旨在通过大规模低轨卫星组网,为全球提供高速互联网覆盖,该卫星承担星链星座组网运营任务,服务全球宽带接入需求,是星链低轨星座部署中的组成单元。

基本信息
目录编号:
53932
目录名称:
STARLINK-4772
国际标识:
2022-119AY
轨道中心:
EARTH
卫星名称:
星链-4772
卫星全名:
星链-4772 (STARLINK-4772 )
卫星状态:
在轨 (已飞行1268 天)
发射日期:
2022-09-24 UTC
国别 :
美国 (US)
星等 :
--
轨道信息
数据来源 国际轨道数据 AOE轨道数据
星历时间 2026-03-15T04:29:31+0800
13小时前
查看轨道信息
2026-03-14T17:00:00+0800
1天前
查看轨道信息
半长轴 6917.887km 6917.87km
偏心率 0.0001409 0.0001488
轨道倾角 53.216° 53.216°
近地点辐角 90.401° 79.796°
升交点赤经 276.030° 278.181°
平近点角 269.714° 198.027°
近地点 538.775km 538.703km
远地点 540.725km 540.763km
周期 95.438分钟 95.437分钟
每日圈数 15.088381 15.088436
详细信息
固有亮度:
5
最大亮度:
2.5
卫星平台:
Starlink v1.5
覆盖范围:
全球
运营商:
太空探索技术公司
运营商所在国:
美国
制造商(研发单位):
太空探索技术公司
制造商所在国:
美国
使用方式:
暂无
卫星简介
星链(Starlink)计划是由太空探索技术公司(SpaceX)提出的一个巨型低轨卫星互联网星座项目,计划在2019年至2024年间在太空搭建由约1.2万颗卫星组成的“星链”网络,其中1584颗将部署在地球上空550千米处的近地轨道,并从2020年开始工作。该卫星仍在工作。
2D轨道图
3D轨道图
轨道高度分析图
轨道倾角分析图
轨道综合分析图
查看轨道综合分析图